www.pogodaiklimat.ru

Погода и климат >> Архив погоды >> Кувейт >> Аль-Вафра


ПОГОДА в Аль-Вафре

  • Прогноз погоды в Аль-Вафре
  • Монитор погоды в Аль-Вафре

АРХИВ ПОГОДЫ в Аль-Вафре

Время (UTC), дата Ветер
(напр.,м/с)
 
Видим.   Явления Облачность Т
(С)
Тd
(С)
f
(%)
Тe
(С)
Тes
(С)
Комфортность P
(гПа)
Po
(гПа)
Тmin
(С)
Tmax
(С)
R
(мм)
R24
(мм)
S
(см)
18 17.06 СЗ 2-2
{9}
12 км н/о +32.4 +11.7 28 +32 +32 жарко 1002.8 990.9
21 17.06 СЗ 2-2
{2}
18 км н/о +30.1 +9.6 28 +30 +30 жарко 1003.0 991.0 +29.9 +47.3
00 18.06 С 3-6
{7}
19 км н/о +34.5 +6.6 18 +32 +32 жарко 1002.6 990.8
03 18.06 С 3-5
{5}
17 км н/о +33.8 +9.3 22 +33 +33 жарко 1003.5 991.6 31
06 18.06 С 4-8
{8}
14 км н/о +41.3 +9.5 15 +40 +40 очень
жарко
1003.7 992.1 287
09 18.06 С 4-9
{11}
19 км н/о +44.1 +9.3 13 +42 +42 опасность
перегрева
1002.9 991.4 421
12 18.06 СВ 3-9
{12}
20 км н/о +44.1 +10.1 13 +42 +42 опасность
перегрева
1001.5 990.0 307
15 18.06 СВ 2-5
{8}
20 км н/о +39.9 +10.7 17 +38 +38 очень
жарко
1001.1 989.5 21
18 18.06 СВ 1-3
{8}
17 км н/о +34.1 +10.2 23 +33 +33 жарко 1002.3 990.4
21 18.06 С 4-7
{9}
20 км н/о +36.3 +5.6 15 +34 +34 очень
жарко
1001.3 989.5 +29.7 +45.5
00 19.06 СЗ 4-8
{10}
19 км н/о +33.9 +4.0 15 +31 +31 жарко 1000.5 988.7
03 19.06 СЗ 5-10
{10}
19 км н/о +33.3 +6.7 19 +31 +31 жарко 1001.2 989.3 32
06 19.06 С 6-12
{14}
12 км н/о +39.5 +10.4 18 +38 +38 очень
жарко
1001.9 990.3 290
09 19.06 СЗ 7-14
{17}
6000 м дым н/о +42.6 +9.1 14 +41 +41 опасность
перегрева
1001.3 989.8 399
12 19.06 СЗ 7-13
{17}
8000 м дым н/о +43.5 +5.3 10 +41 +41 опасность
перегрева
999.8 988.3 306
15 19.06 СЗ 7-14
{16}
7000 м дым н/о +40.5 +2.4 10 +37 +37 очень
жарко
999.8 988.2 36
18 19.06 СЗ 4-8
{16}
9000 м дым н/о +36.5 +5.1 14 +34 +34 очень
жарко
1001.3 989.5
21 19.06 СЗ 3-4
{9}
19 км н/о +32.2 +6.4 20 +30 +30 жарко 1001.4 989.5 +32.0 +43.7
00 20.06 СЗ 3-6
{9}
20 км н/о +30.8 +6.5 22 +29 +29 жарко 1001.1 989.1
03 20.06 СЗ 4-7
{8}
20 км н/о +31.7 +8.9 24 +31 +31 жарко 1001.9 990.0 42
06 20.06 С 6-13
{13}
17 км н/о +37.7 +11.9 21 +37 +37 очень
жарко
1002.2 990.5 303
09 20.06 СЗ 7-13
{16}
10 км н/о +41.5 +9.7 15 +40 +40 очень
жарко
1001.4 989.8 418
12 20.06 СЗ 6-13
{16}
18 км н/о +42.7 +8.3 13 +41 +41 опасность
перегрева
999.8 988.3 326
15 20.06 СЗ 6-11
{13}
20 км н/о +39.9 +5.3 12 +37 +37 очень
жарко
999.7 988.1 16
18 20.06 СЗ 2-3
{13}
20 км н/о +33.2 +6.1 18 +31 +31 жарко 1001.4 989.5
21 20.06 З 2-3
{4}
20 км н/о +30.8 +6.5 22 +29 +29 жарко 1001.6 989.6 +29.6 +43.1
00 21.06 З 2-4
{4}
20 км н/о +28.7 +7.5 26 +28 +28 жарко 1001.6 989.5
03 21.06 СЗ 3-6
{7}
20 км н/о +31.7 +8.6 24 +31 +31 жарко 1002.9 990.9 38
06 21.06 С 4-9
{9}
20 км н/о +38.6 +12.6 21 +38 +38 очень
жарко
1003.1 991.4 301
09 21.06 СЗ 5-13
{13}
19 км н/о +41.6 +9.3 15 +40 +40 очень
жарко
1001.9 990.3 435
12 21.06 СЗ 7-13
{14}
14 км н/о +42.0 +7.1 12 +39 +39 очень
жарко
1000.3 988.8 321
15 21.06 С 6-12
{16}
12 км н/о +39.7 +0.3 9 +36 +36 очень
жарко
1000.3 988.7 29
18 21.06 С 2-4
{16}
19 км н/о +34.9 +1.4 12 +32 +32 жарко 1001.1 989.3
21 21.06 СЗ 2-4
{6}
20 км н/о +31.1 +3.3 17 +29 +29 жарко 1001.4 989.4 +27.9 +42.8
00 22.06 З 2-3
{6}
20 км н/о +28.0 +4.7 23 +27 +27 жарко 1001.4 989.3
03 22.06 З 2-3
{4}
15 км дымка н/о +29.1 +8.2 27 +29 +29 жарко 1002.5 990.4 38
06 22.06 С 4-8
{10}
18 км н/о +37.8 +11.3 20 +37 +37 очень
жарко
1002.8 991.1 305
09 22.06 СЗ 5-9
{9}
20 км н/о +41.7 +10.3 15 +40 +40 очень
жарко
1002.3 990.7 431
12 22.06 С 4-10
{10}
20 км н/о +43.0 +9.9 14 +41 +41 опасность
перегрева
1001.1 989.6 330
15 22.06 СВ 2-4
{9}
20 км н/о +39.4 +8.8 16 +38 +38 очень
жарко
1001.0 989.4 14
18 22.06 ЮЗ 1-1
{9}
9000 м дымка н/о +29.9 +12.1 33 +31 +31 жарко 1002.2 990.2
21 22.06 СЗ 2-3
{3}
18 км н/о +28.6 +9.4 30 +29 +29 жарко 1002.1 990.0 +26.2 +43.9
00 23.06 СЗ 2-3
{4}
20 км н/о +28.7 +7.6 26 +28 +28 жарко 1001.9 989.8
03 23.06 З 1-1
{4}
19 км н/о +31.3 +11.9 30 +32 +32 жарко 1003.0 991.0 28
06 23.06 С 3-6
{6}
19 км н/о +38.3 +12.0 21 +38 +38 очень
жарко
1003.2 991.5 274
09 23.06 СВ 3-7
{8}
19 км н/о +43.5 +12.5 16 +43 +43 опасность
перегрева
1002.1 990.6 405
12 23.06 СВ 3-7
{9}
20 км н/о +43.1 +9.3 13 +41 +41 опасность
перегрева
1001.3 989.8 310
15 23.06 В 2-3
{10}
17 км н/о +38.2 +12.0 21 +38 +38 очень
жарко
1001.4 989.7 21
18 23.06 Ю 1-2
{10}
19 км н/о +33.0 +15.0 34 +35 +35 душно 1002.4 990.5
21 23.06 ЮЗ 1-2
{3}
15 км н/о +29.3 +15.5 43 +32 +32 душно 1002.1 990.1 +27.9 +44.4
00 24.06 СЗ 2-4
{5}
20 км н/о +27.8 +12.9 40 +29 +29 жарко 1002.2 990.1
03 24.06 С 2-5
{5}
15 км н/о +31.5 +11.2 29 +32 +32 жарко 1002.7 990.7 28
06 24.06 С 4-7
{9}
16 км н/о +40.0 +10.2 17 +39 +39 очень
жарко
1003.2 991.6 281
09 24.06 СВ 4-8
{9}
19 км н/о +44.5 +9.4 13 +43 +43 опасность
перегрева
1002.2 990.7 413
12 24.06 СВ 3-7
{11}
19 км н/о +45.0 +9.8 13 +44 +44 опасность
перегрева
1001.0 989.6 309
15 24.06 СВ 1 19 км н/о +38.6 +13.4 22 +39 +39 душно 1001.1 989.4

 

Местоположение метеостанции Аль-Вафра (Кувейт): широта 28.56 долгота 48.06 высота над уровнем моря 107 м.

В архиве по умолчанию представлена погода в Аль-Вафре за последнюю неделю. Архивные данные за месяц целиком и за предыдущие месяцы, начиная с января 2011 года, Вы можете получить, выбрав интересующий диапазон дат из раскрывающегося списка и нажав кнопку "Ввод!".


*Определитесь, кто Вы:
робот инопланетянин человек

Внимание! Время в таблицах - всемирное. Для получения местного времени необходимо прибавить поправку, которая равна 3 ч.

Смотрите также архив погоды в соседних городах и на ближайших метеорологических станциях:

Погода в Порту Juluiah (Кувейт) (41 км)
Погода в Умм-Аль-Марадим (Кувейт) (59 км)
Погода в Нувасибе (Кувейт) (68 км)
Погода в Эль-Кувейте (Кувейт) (74 км)
Погода в Минагише (Кувейт) (77 км)
Погода на Экспериментальной ферме (Кувейт) (82 км)
Погода в Сулайбии (Кувейт) (86 км)
Погода в Кувейт Сити (Кувейт) (86 км)
Погода в Аль-Шуаиба (Кувейт) (88 км)
Погода в Эль-Джахра (Кувейт) (93 км)

Пояснения к столбцам:

Ветер - указаны скорость ветра в м/с - средняя за 10 мин, порывы в срок и между сроками (в фигурных скобках) и направление, откуда дует ветер: С - северный, СВ - северо-восточный, В - восточный, ЮВ - юго-восточный, Ю - южный, ЮЗ - юго-западный, З - западный, СЗ - северо-западный.
Видимость - горизонтальная дальность видимости в метрах или километрах. При видимости от 1 до 10 км при отсутствии осадков обычно наблюдается дымка, при ухудшении видимости до 1 км и менее - туман. В сухую погоду видимость может ухудшаться дымом, пылью или мглою.
Явления - указаны атмосферные явления, наблюдавшиеся в срок или в последний час перед сроком; фигурными скобками обозначены явления, наблюдавшиеся между сроками (за 1-3 часа до срока); квадратными скобками обозначены град или гололедные отложения с указанием их диаметра в мм.
Облачность - указаны через наклонную черту общая и нижняя облачность в баллах и высота нижней границы облаков в метрах; квадратными скобками обозначены формы облаков: Ci - перистые, Cs - перисто-слоистые, Cc - перисто-кучевые, Ac - высококучевые, As - высокослоистые, Sc - слоисто-кучевые, Ns - слоисто-дождевые, Cu - кучевые, Cb - кучево-дождевые. Подробнее классификацию облаков см. в Атласе облаков (PDF).
T - Температура воздуха - температура, измеренная на высоте 2 м над землей.
Td - Температура точки росы - температура, при понижении до которой содержащийся в воздухе водяной пар достигнет насыщения.
f - Относительная влажность воздуха - влажноcть воздуха, измеренная на высоте 2 м над землей.
Te - Эффективная температура - температура, которую ощущает одетый по сезону человек в тени. Характеристика душности погоды. При расчете учитывается влияние влажности воздуха и скорости ветра на теплоощущения человека.
Tes - Эффективная температура на солнце - температура, которую ощущает человек, с поправкой на солнечный нагрев. Характеристика знойности погоды. Зависит от высоты солнца над горизонтом, облачности и скорости ветра. Ночью, в пасмурную погоду, а также при ветре 12 м/с и более поправка равна нулю.
P - Атмосферное давление - приведенное к уровню моря атмосферное давление.
Po - Атмосферное давление - измеренное на уровне метеостанции атмосферное давление.
Tmin - Минимальная температура - минимум температуры воздуха на высоте 2 м над землей.
Tmax - Максимальная температура - максимум температуры воздуха на высоте 2 м над землей.
R - Количество осадков - Количество выпавших осадков за период времени, мм. При наведении курсора мыши на число - период времени, за который выпало указанное количество осадков.
R24 - Количество осадков - Количество выпавших осадков за 24 часа, мм.
S - Снежный покров - Высота снежного покрова, см. При наведении курсора мыши на число - состояние снежного покрова и степень покрытия местности в баллах.